Temp
10 10 10 10 10 9 9 9 9 9 9 9 9 9 9 9 9 9 9 9 9 9 9 9 9 9 9 9 9 9 9 9 9 9 10 10 10 10 10 10 10 10
10 10 10 10 9 9 9 9 9 9 9 9 9 9 9 9 9 9 9 9 9 9 9 9 9 9 9 9 9 9 9 9 9 9 10 10 10 10 10 10 10 10
10 10 10 10 9 9 9 9 9 9 9 9 9 9 9 9 9 9 9 9 9 9 9 9 9 9 9 9 9 9 9 9 9 9 9 9 9 10 10 10 10 10
10 10 10 10 9 9 9 9 9 9 9 9 9 9 9 9 9 9 9 9 9 9 9 9 9 9 9 9 9 9 9 9 9 9 9 9 9 10 10 10 10 10
9 9 10 9 9 9 9 9 9 9 9 9 9 9 9 9 9 9 9 9 9 9 9 9 9 9 9 9 9 9 9 9 9 9 9 9 9 10 10 10 10 10
10 10 10 9 9 9 9 9 9 9 9 9 9 9 9 9 9 9 9 9 9 9 9 9 9 9 9 9 9 9 9 9 9 9 9 9 9 10 10 10 10 9
10 10 10 10 10 10 10 9 9 9 9 9 9 9 9 9 9 9 9 9 9 9 9 9 9 9 9 9 9 9 9 9 9 9 9 9 9 9 9 9 9 9
10 10 10 10 10 10 10 10 10 9 9 9 9 9 9 9 9 9 9 9 9 9 9 9 9 9 9 9 9 9 9 9 9 9 9 9 9 9 9 9 9 9
9 9 10 10 10 10 10 10 10 10 9 9 9 9 9 9 9 9 9 9 9 9 9 9 9 9 9 9 9 9 9 9 9 9 9 9 9 9 9 9 9 9
9 9 9 10 10 10 10 10 10 10 10 9 9 9 9 9 9 9 9 9 9 9 9 9 9 9 9 9 9 9 9 9 9 9 9 9 9 9 9 9 9 9
10 9 9 9 9 9 9 9 10 10 10 10 9 9 9 9 9 9 9 9 9 9 9 9 9 9 9 9 9 9 9 9 9 9 9 9 9 9 9 9 9 9
10 10 9 9 9 9 9 9 10 10 10 10 10 9 9 9 9 9 9 9 9 9 9 9 9 9 9 9 9 9 9 9 9 9 9 9 9 9 9 9 9 9
9 9 9 9 9 10 9 9 9 9 10 10 10 10 10 9 9 9 9 9 9 9 9 9 9 9 9 9 9 9 9 9 9 9 9 9 9 10 10 10 9 9
9 9 9 9 9 9 9 9 9 9 9 10 10 10 10 10 10 10 10 10 9 9 9 9 9 9 9 9 9 9 9 9 9 9 9 9 9 9 10 10 10 10
9 9 9 9 9 9 9 9 9 9 9 9 10 10 10 10 10 10 10 10 10 9 9 9 9 9 9 9 9 9 9 9 9 9 9 9 9 10 10 10 10 10
9 9 9 9 9 9 9 9 9 9 9 9 10 10 10 10 10 10 10 10 10 10 9 9 9 9 9 9 9 9 9 9 9 9 9 9 10 10 10 10 10 10
9 9 9 9 9 9 9 9 9 9 9 9 9 10 10 10 10 10 10 10 10 10 9 9 9 9 9 9 10 10 10 10 10 10 10 10 10 10 10 10 10 10
9 9 9 9 9 9 9 9 9 9 9 9 9 9 9 9 9 10 10 10 10 10 9 9 9 9 9 9 9 10 10 10 10 10 10 10 10 10 10 10 10 10
9 9 9 9 9 9 9 9 9 8 8 9 9 9 9 9 9 9 10 10 10 10 9 9 9 9 9 9 9 9 10 10 10 10 10 10 10 10 10 10 10 10
9 9 9 9 9 9 8 8 8 8 8 9 9 9 9 9 9 9 9 9 9 9 9 9 9 9 9 9 9 9 10 10 10 10 10 10 10 10 10 10 10 10
9 9 9 9 9 9 8 8 8 8 9 9 9 9 9 9 9 9 9 9 9 9 9 9 9 9 9 9 9 9 9 10 10 10 10 10 10 10 10 10 10 10
9 9 9 9 9 9 8 8 8 8 9 9 9 9 9 10 9 9 9 9 9 9 9 9 9 9 9 9 9 9 9 9 9 10 10 10 10 10 9 9 10 10
9 9 9 9 9 9 8 8 8 8 9 9 9 9 9 9 9 9 9 9 9 9 9 9 9 9 9 9 9 9 9 9 9 9 9 10 10 10 9 9 9 10
9 9 9 9 9 9 8 8 8 8 9 9 9 9 9 9 9 9 9 9 9 9 9 9 9 9 9 9 9 9 9 9 9 9 9 9 9 9 9 9 9 9
9 9 9 9 9 8 8 8 8 9 9 9 9 9 9 9 9 9 9 9 9 9 9 9 9 9 9 9 9 9 9 9 9 9 9 9 9 9 9 9 9 9
9 9 8 8 9 8 8 9 9 9 9 9 9 9 9 9 9 9 9 9 9 9 9 9 9 9 9 9 9 10 9 9 9 9 9 9 9 9 9 9 9 9
Height
3250 3252 3253 3254 3255 3255 3256 3256 3257 3257 3258 3258 3258 3259 3260 3260 3261 3261 3262 3263 3263 3264 3264 3265 3266 3266 3267 3267 3267 3268 3268 3269 3269 3270 3271 3271 3272 3273 3273 3274 3275 3275
3250 3251 3252 3253 3254 3255 3256 3256 3257 3257 3258 3258 3258 3259 3259 3260 3260 3261 3261 3262 3262 3263 3264 3265 3265 3266 3266 3266 3267 3267 3268 3268 3269 3269 3270 3271 3271 3272 3272 3273 3274 3274
3249 3250 3251 3252 3254 3254 3255 3256 3256 3257 3258 3258 3258 3259 3259 3260 3260 3260 3261 3261 3262 3263 3263 3264 3265 3265 3265 3266 3266 3267 3267 3268 3268 3269 3269 3270 3270 3271 3271 3272 3273 3273
3248 3249 3250 3252 3253 3254 3254 3255 3256 3256 3257 3258 3258 3259 3259 3260 3260 3260 3261 3261 3261 3262 3263 3263 3264 3265 3265 3265 3266 3266 3267 3267 3268 3268 3269 3269 3269 3270 3271 3271 3272 3272
3247 3248 3249 3250 3251 3253 3254 3255 3255 3256 3257 3257 3257 3258 3259 3259 3260 3260 3260 3261 3261 3261 3262 3263 3263 3264 3264 3265 3265 3266 3266 3267 3267 3267 3268 3268 3269 3269 3270 3270 3271 3271
3245 3246 3248 3249 3250 3251 3253 3254 3255 3255 3256 3256 3257 3257 3258 3259 3259 3260 3260 3260 3260 3261 3261 3262 3263 3263 3264 3264 3265 3265 3265 3266 3266 3267 3267 3268 3268 3268 3269 3269 3270 3270
3243 3245 3246 3247 3248 3250 3252 3253 3254 3254 3255 3255 3256 3257 3257 3258 3258 3259 3259 3260 3260 3260 3261 3261 3262 3263 3263 3264 3265 3265 3265 3265 3266 3266 3266 3267 3267 3267 3268 3268 3268 3269
3241 3243 3244 3246 3247 3248 3250 3251 3253 3253 3254 3254 3255 3256 3257 3257 3257 3258 3259 3259 3259 3260 3260 3260 3261 3262 3263 3264 3264 3265 3265 3265 3265 3265 3266 3266 3266 3267 3267 3267 3267 3268
3239 3241 3242 3243 3245 3246 3248 3250 3251 3252 3253 3253 3254 3254 3255 3256 3256 3257 3257 3258 3259 3259 3259 3260 3260 3261 3262 3262 3263 3264 3264 3265 3265 3265 3265 3265 3266 3266 3266 3267 3267 3267
3236 3237 3239 3241 3242 3244 3245 3247 3248 3250 3251 3251 3252 3253 3253 3254 3255 3255 3256 3257 3258 3258 3259 3259 3259 3260 3260 3261 3262 3263 3263 3264 3264 3265 3265 3265 3265 3265 3266 3266 3266 3266
3234 3235 3236 3238 3240 3242 3243 3244 3245 3247 3248 3249 3250 3251 3251 3252 3253 3254 3254 3255 3256 3257 3258 3258 3258 3259 3259 3260 3261 3261 3262 3263 3263 3264 3264 3264 3264 3265 3265 3265 3265 3265
3233 3233 3234 3235 3237 3239 3241 3242 3244 3245 3246 3248 3248 3249 3249 3250 3251 3252 3253 3254 3254 3255 3256 3257 3257 3258 3258 3259 3260 3260 3261 3262 3262 3263 3263 3263 3264 3264 3264 3264 3264 3265
3230 3231 3232 3233 3235 3237 3238 3239 3241 3243 3244 3245 3246 3247 3248 3248 3249 3250 3251 3252 3252 3253 3254 3255 3256 3256 3257 3258 3258 3259 3260 3260 3261 3261 3261 3262 3262 3263 3263 3263 3264 3264
3226 3228 3229 3230 3231 3233 3235 3236 3238 3240 3241 3243 3244 3245 3246 3247 3247 3248 3249 3250 3251 3251 3252 3253 3254 3255 3255 3256 3257 3257 3258 3259 3259 3260 3260 3260 3261 3261 3261 3262 3262 3263
3224 3226 3227 3228 3228 3229 3232 3234 3236 3237 3239 3241 3242 3243 3244 3245 3245 3246 3247 3248 3248 3249 3250 3251 3252 3253 3253 3254 3255 3256 3256 3257 3257 3258 3259 3259 3259 3260 3260 3260 3261 3261
3222 3225 3226 3227 3227 3228 3229 3232 3234 3235 3236 3238 3240 3242 3243 3243 3244 3245 3245 3246 3246 3247 3248 3249 3250 3251 3252 3253 3253 3254 3255 3255 3256 3256 3257 3257 3258 3258 3259 3259 3259 3259
3221 3223 3223 3223 3224 3226 3228 3230 3232 3233 3234 3236 3238 3239 3240 3241 3242 3242 3243 3244 3245 3245 3246 3247 3248 3249 3250 3251 3252 3253 3253 3254 3255 3255 3255 3256 3256 3256 3257 3257 3257 3257
3218 3218 3218 3218 3219 3222 3224 3227 3228 3230 3231 3233 3235 3236 3237 3238 3239 3240 3241 3242 3242 3243 3244 3245 3246 3247 3248 3249 3249 3250 3251 3252 3253 3253 3254 3254 3254 3254 3255 3255 3255 3255
3212 3212 3213 3214 3215 3217 3220 3223 3225 3227 3228 3230 3231 3233 3234 3235 3236 3238 3239 3240 3240 3241 3241 3242 3243 3244 3245 3246 3247 3247 3248 3249 3250 3251 3251 3252 3252 3252 3252 3253 3253 3253
3208 3208 3209 3210 3212 3213 3216 3219 3221 3223 3225 3227 3228 3230 3231 3232 3234 3235 3237 3238 3238 3238 3238 3239 3241 3242 3243 3243 3244 3245 3246 3246 3247 3248 3249 3249 3250 3250 3250 3250 3250 3251
3205 3206 3207 3208 3208 3210 3213 3215 3218 3220 3222 3224 3225 3227 3229 3230 3231 3233 3234 3235 3236 3236 3236 3237 3238 3239 3240 3241 3241 3242 3243 3244 3244 3245 3246 3246 3247 3247 3247 3248 3248 3248
3204 3204 3205 3206 3206 3207 3210 3212 3215 3217 3219 3221 3222 3224 3226 3227 3229 3230 3231 3232 3233 3234 3234 3235 3235 3236 3237 3238 3239 3240 3240 3241 3242 3242 3243 3243 3243 3244 3244 3245 3245 3245
3202 3202 3203 3204 3205 3206 3209 3211 3213 3215 3217 3218 3219 3221 3223 3224 3226 3227 3228 3229 3230 3231 3231 3232 3232 3232 3233 3235 3236 3237 3238 3238 3239 3239 3240 3240 3240 3241 3241 3242 3242 3242
3200 3201 3202 3203 3204 3206 3208 3210 3211 3213 3214 3215 3217 3218 3220 3221 3223 3224 3225 3226 3227 3227 3228 3228 3228 3229 3231 3232 3233 3234 3235 3235 3236 3236 3237 3237 3237 3238 3238 3238 3239 3239
3198 3199 3200 3202 3203 3204 3206 3208 3210 3211 3212 3213 3215 3216 3217 3218 3220 3221 3221 3223 3224 3224 3225 3225 3225 3227 3228 3229 3229 3231 3231 3232 3233 3233 3234 3234 3235 3235 3235 3235 3236 3236
3195 3196 3198 3200 3201 3203 3205 3206 3208 3209 3210 3211 3212 3213 3215 3215 3215 3216 3218 3219 3220 3221 3222 3222 3223 3224 3225 3225 3226 3227 3228 3228 3229 3230 3231 3231 3232 3232 3232 3232 3232 3233
Wind_Speed
14 13 11 10 10 10 10 9 9 8 7 7 7 7 6 6 5 5 6 5 5 5 5 5 6 6 6 6 6 6 7 7 7 7 8 8 8 8 8 8 8 7
15 14 13 12 11 10 10 10 9 9 8 7 7 6 6 6 6 6 6 6 6 5 5 5 6 6 7 6 6 7 7 8 7 8 8 8 9 8 8 8 8 8
16 15 15 14 12 11 11 10 10 9 9 8 7 6 6 6 7 6 6 6 6 6 5 5 5 6 7 7 6 7 8 8 8 8 8 8 9 9 8 8 8 8
17 16 16 15 14 13 13 12 11 10 10 9 8 7 6 7 7 7 7 7 7 7 6 6 6 6 6 6 6 7 8 8 8 8 8 9 9 9 9 8 8 8
18 18 17 16 16 15 14 13 12 12 11 10 9 8 8 8 8 8 8 8 8 7 7 7 7 6 6 6 6 7 8 8 8 9 9 10 10 9 9 9 9 9
19 19 19 18 18 17 16 15 14 14 13 12 11 10 10 9 9 10 10 9 9 8 8 8 7 7 6 6 6 7 7 8 8 9 10 10 10 10 10 9 9 9
19 20 20 20 20 19 18 17 16 15 15 14 13 12 11 11 11 11 11 11 10 10 9 9 8 7 7 7 7 7 7 7 8 8 9 10 11 11 10 10 10 10
18 19 20 22 22 21 20 19 18 17 17 16 14 13 13 12 12 12 12 12 12 11 10 10 9 8 7 7 7 7 7 7 7 8 9 9 10 11 11 11 10 10
19 19 19 21 22 22 21 20 20 19 18 17 16 15 14 14 14 13 13 13 13 13 11 11 10 9 9 8 8 8 7 7 7 8 8 8 9 10 11 10 10 10
22 21 20 21 21 21 21 21 21 21 20 19 18 17 16 15 15 15 15 14 14 14 13 12 11 10 10 9 9 9 8 8 8 8 8 8 8 9 9 10 10 11
24 23 22 21 21 21 21 21 21 22 22 21 20 19 18 17 17 16 16 16 15 15 14 13 13 12 11 11 10 10 10 9 9 8 8 8 8 9 9 9 10 11
26 25 24 23 22 21 20 21 21 22 22 22 21 21 20 19 18 18 17 17 17 16 15 15 15 14 12 12 11 11 11 11 10 9 9 9 9 9 10 10 10 11
28 27 27 26 24 23 22 22 22 22 22 22 22 22 21 20 20 19 19 19 18 18 17 17 16 16 14 13 13 13 12 12 12 11 11 11 11 11 11 11 11 11
28 30 29 28 27 26 25 24 23 23 23 22 23 23 23 22 21 20 20 19 19 19 19 19 18 17 17 15 15 14 14 14 14 14 13 13 13 13 12 12 12 12
27 29 30 30 28 26 26 27 26 25 24 23 23 23 23 22 21 21 20 20 20 20 20 20 20 19 19 18 18 17 16 15 15 16 15 15 15 14 14 14 14 13
26 28 29 31 29 25 24 26 27 27 25 23 23 23 22 22 22 21 21 20 20 20 20 20 21 20 20 20 20 19 19 18 18 17 17 17 16 16 15 15 15 15
27 27 28 30 29 26 26 28 28 27 24 23 23 23 22 22 22 22 22 21 20 20 20 20 21 21 21 21 21 21 21 20 20 19 18 18 18 17 17 17 16 16
25 25 25 26 27 28 30 32 29 26 24 22 23 23 23 23 22 22 23 22 21 20 20 21 21 21 21 22 22 22 22 22 21 21 20 20 20 20 19 19 18 18
22 23 24 26 29 30 32 32 30 26 24 24 24 24 24 23 23 23 23 23 22 21 21 22 22 22 22 23 23 23 24 23 23 22 22 22 22 22 22 22 21 21
21 22 22 23 25 27 28 30 29 26 24 24 25 24 23 23 24 24 24 23 22 21 21 22 22 22 23 23 23 24 24 24 24 24 23 23 23 23 23 23 23 23
19 19 18 18 19 22 24 26 26 24 24 25 25 24 23 24 25 25 25 24 23 22 23 23 23 23 23 23 24 24 24 25 25 24 24 24 23 24 24 24 24 24
15 15 16 17 18 19 19 21 22 23 24 25 24 23 23 25 25 25 25 26 25 23 23 24 24 24 24 24 24 25 25 25 25 25 24 24 24 24 24 25 25 25
13 14 15 17 18 17 17 18 21 22 22 22 22 21 21 23 24 24 25 26 25 23 23 24 25 25 25 25 25 25 25 25 25 25 25 24 24 23 23 24 25 26
13 12 11 13 15 16 16 18 19 20 20 20 20 20 21 22 22 23 24 24 24 23 23 24 25 25 24 24 25 25 26 26 26 26 25 24 23 23 23 23 24 25
14 13 12 11 11 11 12 14 15 16 17 17 18 19 20 20 21 22 22 21 21 21 22 23 25 25 25 25 25 26 27 28 28 28 27 26 25 24 24 24 24 24
18 16 14 13 12 12 13 14 15 15 16 17 18 18 19 21 22 21 21 20 20 20 21 21 22 22 23 24 25 26 27 28 29 29 28 28 27 27 27 27 27 27
Wind_Direction
199 195 191 194 196 198 200 194 190 190 188 188 190 188 181 177 179 181 184 187 184 182 187 195 202 204 204 206 207 204 200 198 199 208 212 212 209 206 208 212 216 219
203 200 197 199 202 204 207 204 200 200 200 202 204 200 191 188 188 186 188 190 188 190 194 200 206 208 207 209 210 207 206 201 200 205 207 208 209 207 207 214 219 223
208 205 203 204 206 208 211 210 208 208 208 210 213 212 206 204 200 192 193 196 194 195 200 204 209 212 210 209 211 214 213 208 205 206 204 205 208 207 205 209 220 230
214 212 209 209 210 212 214 214 214 214 214 214 217 218 218 220 216 205 200 202 202 201 204 204 205 212 215 209 209 216 221 218 213 211 207 205 207 208 207 209 218 231
217 216 214 213 214 215 215 216 218 219 220 220 222 222 221 224 225 219 211 209 210 208 209 207 202 209 217 212 207 212 219 221 217 215 212 209 209 208 209 214 220 227
218 219 217 216 217 217 215 216 218 220 223 225 227 227 224 224 227 227 222 217 214 213 213 211 206 208 217 219 215 212 214 215 216 217 215 212 212 211 212 217 222 224
218 220 221 220 219 219 218 218 219 220 222 225 229 232 230 227 228 232 231 226 221 217 215 215 212 212 217 223 226 224 221 219 219 221 221 218 216 214 214 219 222 224
220 221 221 222 222 222 220 221 222 222 223 224 228 232 233 231 230 233 236 235 229 223 219 216 216 216 218 222 228 231 231 230 229 230 228 225 224 221 217 218 221 225
222 222 222 223 224 224 223 223 224 224 223 223 224 228 232 233 232 233 235 237 236 233 227 222 219 219 221 224 227 231 232 234 236 238 234 230 231 231 226 221 222 225
219 220 222 223 224 224 224 224 225 225 224 222 222 226 229 232 233 233 234 236 238 239 237 232 227 224 222 225 229 231 231 232 234 240 241 236 235 237 235 230 227 228
224 221 222 224 224 224 224 224 224 225 225 224 223 224 226 230 233 234 234 234 235 238 241 241 239 233 228 227 230 232 233 232 231 233 239 241 241 240 239 235 233 235
230 225 224 225 225 224 224 226 227 227 226 226 226 227 227 229 231 233 234 234 234 235 238 243 244 243 237 232 231 233 235 235 233 231 233 237 240 243 242 239 237 240
234 231 228 227 228 226 224 224 226 228 228 228 228 229 230 231 232 233 233 233 234 235 236 239 243 245 244 239 236 235 236 238 237 235 233 234 237 241 243 244 243 245
231 234 231 228 228 228 228 226 224 227 229 229 229 231 232 233 233 233 234 233 234 236 237 239 241 243 245 244 241 239 239 240 241 240 239 237 238 240 243 244 246 249
229 236 236 232 228 226 230 231 227 227 229 230 232 232 233 235 235 235 235 234 234 236 238 240 242 243 245 245 245 244 242 243 243 244 245 246 245 246 246 247 248 249
236 239 242 241 236 229 234 239 234 230 230 232 234 235 236 238 238 238 236 235 235 237 239 242 243 245 247 248 249 248 247 247 246 246 248 250 252 252 252 252 252 252
242 242 243 244 241 234 237 242 238 232 229 231 235 236 236 237 238 239 239 237 236 238 240 242 244 246 248 251 252 253 253 253 252 251 252 253 255 257 258 258 257 256
246 245 244 245 242 236 235 236 236 232 228 229 233 235 236 238 239 240 240 238 237 237 240 243 244 245 247 249 251 252 253 254 254 255 255 256 257 258 259 260 260 260
247 245 244 243 239 234 230 230 233 233 229 231 235 237 238 240 242 243 241 239 237 237 240 243 244 246 247 248 250 252 252 253 253 253 254 256 257 258 259 261 261 262
244 242 241 238 233 228 225 227 231 234 234 237 240 241 241 243 246 246 243 240 240 240 242 245 246 247 248 250 252 253 254 254 253 253 254 255 257 259 260 260 261 261
240 239 239 237 233 229 224 223 228 233 236 239 241 241 240 243 246 246 243 243 245 245 246 247 247 248 249 250 252 254 254 255 255 254 253 254 256 258 260 261 261 260
239 239 236 234 235 236 231 225 225 229 231 235 238 240 240 242 244 243 241 242 244 245 247 248 249 249 250 250 252 253 254 254 255 255 255 254 255 257 260 262 262 261
234 237 236 230 228 231 231 227 225 224 225 230 235 239 242 243 243 243 242 241 243 245 246 247 248 248 249 251 252 253 254 255 256 256 256 256 256 257 260 263 263 262
224 225 223 217 214 211 209 214 220 222 225 230 234 238 242 244 245 245 244 243 245 247 247 247 248 248 249 251 252 253 255 255 255 256 256 257 258 258 260 262 263 264
220 218 213 209 208 203 201 207 215 221 225 230 233 235 237 240 243 244 245 246 247 249 249 249 250 251 252 254 255 255 256 255 254 255 256 257 259 260 261 261 263 264
216 216 216 217 215 210 211 214 216 220 225 228 231 233 235 238 238 237 239 243 245 247 249 250 252 253 255 257 258 258 257 256 254 254 256 257 259 260 261 261 261 263